"Pseudo-MPEC" for P210P5z

Created 2020 May 25 1:07:22 UT using Find_Orb

Click here for an explanation of pseudo-MPECs

 
 Astrometry: 
     P210P5z  C2020 05 11FB\o-EX9PuxPbG-4FQ0C)V[x*YB#1IS9s;^sMx#IPT1Q;yxFcuO?F52
     P210P5z  C2020 05 111M#jJU*/?W$X*Q0.:eEWeCX(?-P5%t9`P?j99!Astrometry=K+nF52
     P210P5z  C2020 05 1159I)U4NgSry6k,8uA=oZ#ETG^GH!r.JaGsjWaxo6w+[)wV%:L9rqF52
     P210P5z  C2020 05 15Gs0nv1@*5'+.KbJj:?Z7$u!rToxGAJo;Z=kE^u[?ZCkwm[7fo)jeF51
     P210P5z  C2020 05 15XE8redacted;2;63\`(QtFv@^K!#,xn)l)@2yI#d[Vm=m'T-c_(cF51
     P210P5z  C2020 05 15\HG-#K9!?vG#=ZV@7t9QI1D*?+HX31:5Yl^oHWloZc)6]t1_4bcyF51
     P210P5z  C2020 05 23`GkoPY'kH:G;xcUb26Kp/jkHXSeWm3O9(LcKtWr5UhRe+?!05[?%F52
     P210P5z  C2020 05 23MB^Z-oN@EA#%m@PgxWSD/O(s:=U3w\U5=*D7)e:bX[8YnclickWfF52
     P210P5z  C2020 05 23m@_vIX6@gJq#Y`@vE4N*(7c)vRM=Enuq427V6cYoISherelnrZCVF52
     P210P5z  C2020 05 23b4rqiIsH0uD'd0s@F\S;+--T%gQ5*e-06vf:m`b#5`_yp2snM2S4F52
     P210P5z ^C2020 05 24.35387913 14 01.414-07 30 16.58   ~5O9b 20.77GVNEOCP568
     P210P5z ^C2020 05 24.35494013 14 01.249-07 30 09.20   ~5O9b 20.60GVNEOCP568
     P210P5z ^C2020 05 24.35588913 14 01.102-07 30 02.59   ~5O9b 20.48GVNEOCP568
     P210P5z ^C2020 05 24.35684413 14 00.953-07 29 55.93   ~5O9b 20.35GVNEOCP568
     P210P5z pC2020 05 24s-m;^(E#5UnfA.Y[p6q1OJ'aDx/K0=_)$RDcZi@Ix45tBHUm_L$4L01
     P210P5z KC2020 05 24Q_vu]_FG_Q'7ODq?d@qS0kOXGvqMT`$:\yQuyyx^*%OYIFRgAJt+L01
     P210P5z KC2020 05 24;$=5j/un#1HforT,!-*:7ciKfj#Te'(pCexplanation,3_aH)pwL01
     P210P5z KC2020 05 24xM.'o!iSoZ=_+)O/7:6@d3wMgV7w.d,bFU5.3IKrU/!Fo.@YvGWIL01
     P210P5z KC2020 05 24.89291 13 13 10.25 -06 25 50.9    ~5OLq 20.2 GUNEOCPI93
     P210P5z KC2020 05 24.89944 13 13 09.24 -06 25 01.1    ~5OLq 20.4 GUNEOCPI93
     P210P5z KC2020 05 24.92623713 13 05.60 -06 21 47.2    ~5ONM 21.2 GVNEOCPJ95
     P210P5z KC2020 05 24.93877013 13 03.81 -06 20 11.1    ~5ONM 20.5 GVNEOCPJ95

Station data:
(568) Mauna Kea  (N19.826116 W155.472200)  US/Hawaii.
(F51) Pan-STARRS 1, Haleakala  (N20.707235 W156.255910)  US/Hawaii.
   Observers N. Primak, A. Schultz, S. Watters, J. Thiel, T. Goggia. Measurer
   PS1 Science Consortium. 1.8-m Ritchey-Chrétien + CCD.
(F52) Pan-STARRS 2, Haleakala  (N20.707384 W156.255910)  US/Hawaii. 1.8-m
   Ritchey-Chrétien + CCD.
(I93) St Pardon de Conques  (N44.558710 W0.203000)  France.  Observer F.
   Losse. 0.40-m f/3.7 reflector + CCD.
(J95) Great Shefford  (N51.474969 W1.447003)  UK.  Observer P. Birtwhistle.
   0.40-m f/6.0 Schmidt-Cassegrain + CCD.
(L01) Višnjan Observatory, Tičan  (N45.290900 E13.749300)  Croatia.
   Observers K. Korlević, E. Pettarin. Measurer E. Pettarin. 1.0-m f/2.9
   reflector + CCD.

Orbital elements:  P210P5z
   Perihelion 2020 Jun 29.478005 +/- 0.00925 TT = 11:28:19 (JD 2459029.978005)
Epoch 2020 May 24.0 TT = JDT 2458993.5   Earth MOID: 0.0135   AutoNEOCP
M 346.08094061 +/- 0.051            (J2000 ecliptic)
n   0.38157402 +/- 0.00132          Peri.   43.62972 +/- 0.008
a   1.88256585 +/- 0.00434          Node   241.03178 +/- 0.0044
e   0.4904943 +/- 0.00123           Incl.    4.59488 +/- 0.008
P   2.58/943.44d           H 25.5   G  0.15   U  8.3  
q 0.95917789 +/- 0.00011    Q 2.80595381 +/- 0.00873
From 22 observations 2020 May 11-24; mean residual 0".24
Residuals in arcseconds: 
200511 F52  .21+  .13-    200523 F52  .13-  .03-    200524 L01  .22-  .12+    
200511 F52  .37+  .43-    200523 F52  .10+  .18+    200524 L01  .21+  .28-    
200511 F52  .28-  .52+    200524 568  .09+  .28-    200524 I93  .71+  .06+    
200515 F51  .20-  .03+    200524 568  .10+  .30-    200524 I93  .41+  .00     
200515 F51  .06-  .05-    200524 568  .13+  .31-    200524 J95  .21-  .22+    
200515 F51  .15-  .08+    200524 568  .13+  .31-    200524 J95  .01+  .16-    
200523 F52  .00   .05+    200524 L01  .18+  .29+    
200523 F52  .03+  .21+    200524 L01  .33-  .00     

Ephemerides (geocentric):
Date (UTC) HH   RA              Dec         delta   r     elong  mag " sig PA
---- -- -- --  -------------   -----------  ------ ------ -----  --- ---- ---
2020 05 25 01  13 12 55.716   -06 04 32.27  .05232 1.0506 135.1 20.9 .344  23
2020 05 25 02  13 12 51.388   -05 59 04.45  .05212 1.0504 135.0 20.9 .353  24
2020 05 25 03  13 12 47.038   -05 53 34.14  .05191 1.0502 134.9 20.8 .363  24
2020 05 25 04  13 12 42.664   -05 48 01.29  .05171 1.0500 134.8 20.8 .372  24
2020 05 25 05  13 12 38.267   -05 42 25.88  .05151 1.0498 134.7 20.8 .382  25
2020 05 25 06  13 12 33.846   -05 36 47.89  .05131 1.0496 134.6 20.8 .392  25
2020 05 25 07  13 12 29.401   -05 31 07.28  .05110 1.0494 134.5 20.8 .402  25
2020 05 25 08  13 12 24.932   -05 25 24.02  .05090 1.0492 134.4 20.8 .412  26
2020 05 25 09  13 12 20.438   -05 19 38.09  .05070 1.0490 134.3 20.8 .423  26
2020 05 25 10  13 12 15.920   -05 13 49.45  .05050 1.0488 134.2 20.8 .433  26
2020 05 25 11  13 12 11.375   -05 07 58.07  .05030 1.0486 134.1 20.8 .444  26
2020 05 25 12  13 12 06.806   -05 02 03.93  .05009 1.0484 134.0 20.8 .455  26
2020 05 25 13  13 12 02.210   -04 56 07.00  .04989 1.0483 133.9 20.8 .466  27
2020 05 25 14  13 11 57.588   -04 50 07.23  .04969 1.0481 133.8 20.8 .478  27
2020 05 25 15  13 11 52.940   -04 44 04.60  .04949 1.0479 133.7 20.8 .490  27
2020 05 25 16  13 11 48.264   -04 37 59.08  .04929 1.0477 133.6 20.8 .501  27
2020 05 25 17  13 11 43.561   -04 31 50.63  .04909 1.0475 133.5 20.8 .514  27
2020 05 25 18  13 11 38.831   -04 25 39.22  .04889 1.0473 133.4 20.8 .526  28
2020 05 25 19  13 11 34.072   -04 19 24.82  .04869 1.0471 133.3 20.7 .538  28
2020 05 25 20  13 11 29.285   -04 13 07.39  .04849 1.0469 133.2 20.7 .551  28
2020 05 25 21  13 11 24.469   -04 06 46.90  .04829 1.0467 133.1 20.7 .564  28
2020 05 25 22  13 11 19.624   -04 00 23.31  .04809 1.0465 133.0 20.7 .577  28
2020 05 25 23  13 11 14.749   -03 53 56.58  .04789 1.0463 132.9 20.7 .591  28
2020 05 26 00  13 11 09.845   -03 47 26.68  .04769 1.0461 132.8 20.7 .604  28
2020 05 26 01  13 11 04.910   -03 40 53.57  .04749 1.0459 132.7 20.7 .618  28
2020 05 26 02  13 10 59.944   -03 34 17.22  .04729 1.0457 132.6 20.7 .632  28
2020 05 26 03  13 10 54.947   -03 27 37.59  .04709 1.0455 132.5 20.7 .647  28
2020 05 26 04  13 10 49.918   -03 20 54.63  .04689 1.0453 132.4 20.7 .661  29
2020 05 26 05  13 10 44.858   -03 14 08.31  .04669 1.0451 132.3 20.7 .676  29
2020 05 26 06  13 10 39.765   -03 07 18.59  .04650 1.0449 132.2 20.7 .691  29
2020 05 26 07  13 10 34.638   -03 00 25.43  .04630 1.0447 132.1 20.7 .707  29
2020 05 26 08  13 10 29.479   -02 53 28.79  .04610 1.0445 132.0 20.7 .722  29
2020 05 26 09  13 10 24.285   -02 46 28.63  .04590 1.0443 131.8 20.7 .738  29
2020 05 26 10  13 10 19.058   -02 39 24.90  .04570 1.0441 131.7 20.6 .755  29
2020 05 26 11  13 10 13.795   -02 32 17.56  .04551 1.0440 131.6 20.6 .771  29
2020 05 26 12  13 10 08.497   -02 25 06.57  .04531 1.0438 131.5 20.6 .788  29
2020 05 26 13  13 10 03.163   -02 17 51.89  .04511 1.0436 131.4 20.6 .805  29
2020 05 26 14  13 09 57.793   -02 10 33.47  .04492 1.0434 131.3 20.6 .822  29
2020 05 26 15  13 09 52.386   -02 03 11.26  .04472 1.0432 131.2 20.6 .840  29
2020 05 26 16  13 09 46.942   -01 55 45.22  .04452 1.0430 131.0 20.6 .858  29
2020 05 26 17  13 09 41.460   -01 48 15.31  .04433 1.0428 130.9 20.6 .876  29
2020 05 26 18  13 09 35.940   -01 40 41.47  .04413 1.0426 130.8 20.6 .895  29
2020 05 26 19  13 09 30.380   -01 33 03.66  .04394 1.0424 130.7 20.6 .914  29
2020 05 26 20  13 09 24.781   -01 25 21.84  .04374 1.0422 130.6 20.6 .933  29
2020 05 26 21  13 09 19.142   -01 17 35.94  .04355 1.0420 130.5 20.6 .953  29
2020 05 26 22  13 09 13.463   -01 09 45.92  .04335 1.0418 130.3 20.6 .973  28
2020 05 26 23  13 09 07.742   -01 01 51.73  .04316 1.0416 130.2 20.6 0.99  28
2020 05 27 00  13 09 01.979   -00 53 53.32  .04296 1.0415 130.1 20.6 1.01  28